User: anonymous   Login
Location: Meetinghouse Hill
(42.7686°N, 71.7752°W)
Time: 08:07:57
(UTC-05:00)
Language:

Iridium 34 - Orbit

View from above orbital plane
View from above orbital plane
View from above satellite
View from above satellite

Ground track
Ground track

The orbit data is extracted from the following two-line orbital elements,

1 24969U 97056E   15057.51121227  .00000393  00000-0  13327-3 0  9990
2 24969 086.3975 310.6194 0002025 098.2147 261.9279 14.34217016911897
Epoch (UTC): 26 February 2015 12:16:08
Eccentricity: 0.0002025
inclination: 86.3975°
perigee height: 776 km
apogee height: 779 km
right ascension of ascending node: 310.6194°
argument of perigee: 98.2147°
revolutions per day: 14.34217016
mean anomaly at epoch: 261.9279°
orbit number at epoch: 91189

The dashed part of the orbit path shows where the satellite is in the earth's shadow,  

DLR